[[{"header":{"parameterUnit":"m.s-1","parameterCategory":1,"la1":30.2991,"la2":30.254,"lo1":-89.0895,"lo2":-89.0444,"dy":0.0017,"dx":0.0017,"nx":28,"ny":28,"refTime":"2023-10-23T21:00:00:Z","depth":0,"parameterNumber":2,"parameterNumberName":"U-component_of_WINDS"},"data":[0,0,0,0,0,0,0,0,0,0,0,0,0,0,0,0,0,0,0,0,0,0,0,0,0,0,0,0,0,0,0,0,0,0,0,0,0,0,0,0,0,0,0,0,0,0,0,0,0,0,0,0,0,0,0,0,0,0,-4.9953,-4.9954,0,-5.0022,-5.0023,-5.0023,-4.9879,-4.9875,-4.987,-4.9865,-4.9937,-4.9943,-4.9949,0,0,0,0,0,0,0,0,0,0,0,0,0,-4.9702,-4.9707,-4.9953,-4.9954,-4.9955,-5.0022,-5.0023,-5.0024,-4.988,-4.9874,-4.9869,-4.9863,-4.9935,-4.9942,-4.995,0,0,0,0,0,0,0,0,0,0,0,0,0,-4.9795,-4.9709,-4.9953,-4.9891,-4.9887,-5.0022,-5.0023,-5.0024,-4.9881,-4.9874,-4.9867,-4.9861,-4.9932,-4.9941,-4.9951,-5.0149,0,0,-4.9979,-4.9983,0,0,0,0,0,0,0,0,-4.979,-4.9804,-4.99,-4.9896,-4.9891,-4.9935,-4.996,-5.0066,-4.9883,-4.9883,-4.9865,-4.9857,-4.9942,-4.995,-4.9978,-5.0152,-5.0155,-4.998,-4.9986,-4.999,-4.9993,0,0,0,0,0,0,0,-4.9784,-4.98,-4.998,-4.9901,-4.9896,-4.9862,-4.9867,-4.9979,-4.9951,-4.9883,-4.9872,-4.9883,-4.9938,-4.997,-4.9979,-5.0156,-4.998,-4.9988,-4.9994,-4.9998,-5.0502,-5.0509,0,0,0,0,0,0,-4.9785,-4.9796,-4.9978,-4.9982,-4.9822,-4.9872,-4.9878,-4.9928,-4.9949,-4.9946,-4.9888,-4.9876,-4.9957,-4.9968,-4.9981,-5.0217,-4.999,-4.9999,-5.0004,-5.0494,-5.0503,-5.0512,0,0,0,0,0,0,-4.978,-4.9802,-4.9975,-4.9887,-4.9906,-4.9884,-4.9941,-4.9933,-4.9964,-4.9954,-4.9948,-4.9926,-4.9952,-4.9968,-5.0109,-5.0217,-5.0003,-5.0011,-5.0485,-5.0497,-5.0508,-5.069,0,0,0,0,0,0,-4.9773,-4.9801,-4.9875,-4.9889,-4.9911,-5.0102,-4.9947,-4.9939,-4.9981,-4.9964,-4.9987,-4.9984,-4.9948,-5.0096,-5.0119,-5.0226,-5.0019,-5.0475,-5.049,-5.0504,-5.0674,-5.0706,-5.0734,0,0,0,0,0,-4.9765,-4.9923,-4.9879,-4.9902,-5.0003,-5.0108,-5.0121,-5.0075,-4.999,-5.0065,-5.0059,-4.9984,-5.0203,-5.0112,-5.0136,-5.0248,-5.0468,-5.0486,-5.0503,-5.0661,-5.07,-5.0733,0,0,0,0,0,0,-4.992,-4.9923,-4.9875,-5.0043,-5.0077,-5.0084,-5.0176,-5.0118,-5.0176,-5.0159,-5.01,-5.0107,-5.0261,-5.0268,-5.0167,-5.0444,-5.0321,-5.0344,-5.0433,-5.047,-5.0499,-5.0494,-5.0027,0,0,0,0,0,-4.9975,-5.0059,-5.0057,-5.0205,-5.0225,-5.0199,-5.0242,-5.0205,-5.0238,-5.0251,-5.0255,-5.0291,-5.0368,-5.0419,-5.0489,-5.0675,-5.068,-5.0765,-5.0795,-5.082,-5.084,-5.0943,-5.0982,-5.0569,-5.0569,-5.0569,0,0,-5.0087,-5.0099,-5.0155,-5.0237,-5.0259,-5.0349,-5.0211,-5.0311,-5.0379,-5.0266,-5.04,-5.0406,-5.0442,-5.0608,-5.0681,-5.0619,-5.0956,-5.0842,-5.0862,-5.0869,-5.0965,-5.1004,-5.1039,-5.0581,-5.0579,-5.0577,0,0,-5.0337,-5.0354,-5.0481,-5.0507,-5.0542,-5.0524,-5.0555,-5.0573,-5.0572,-5.0706,-5.0625,-5.0705,-5.0838,-5.0868,-5.0901,-5.117,-5.1103,-5.1194,-5.135,-5.1451,-5.1483,-5.1512,-5.161,-5.1645,-5.1215,-5.1215,-5.1216,0,-5.0471,-5.0603,-5.0553,-5.0661,-5.0701,-5.0605,-5.0734,-5.0762,-5.0819,-5.0849,-5.0779,-5.0947,-5.0964,-5.1138,-5.1204,-5.1233,-5.1268,-5.119,-5.1483,-5.1511,-5.1537,-5.1629,-5.1666,-5.1226,-5.1225,-5.1224,-5.1223,0,-5.0769,-5.0862,-5.0961,-5.1019,-5.107,-5.1188,-5.1158,-5.1216,-5.1176,-5.1167,-5.1307,-5.1325,-5.1399,-5.1438,-5.1398,-5.1607,-5.1568,-5.1492,-5.1367,-5.1588,-5.1674,-5.1709,-5.1242,-5.1238,-5.1235,-5.1232,0,0,-5.1115,-5.1148,-5.1185,-5.1213,-5.1248,-5.1319,-5.1435,-5.1508,-5.156,-5.1604,-5.1701,-5.1819,-5.175,-5.1787,-5.1752,-5.184,-5.2056,-5.1753,-5.1753,-5.181,-5.229,-5.2348,-5.2389,-5.2013,-5.2019,-5.2024,-5.2288,0,-5.1364,-5.1562,-5.1523,-5.1718,-5.1805,-5.1719,-5.182,-5.1854,-5.185,-5.1925,-5.192,-5.2005,-5.1906,-5.1929,-5.2013,-5.2012,-5.2151,-5.1992,-5.2104,-5.2108,-5.2097,-5.2434,-5.2494,-5.2741,-5.2321,-5.2327,-5.2331,0,-5.1679,-5.1738,-5.1942,-5.1967,-5.2002,-5.2094,-5.216,-5.2232,-5.227,-5.2261,-5.2307,-5.2255,-5.2373,-5.2249,-5.2411,-5.2304,-5.2348,-5.2355,-5.2364,-5.2372,-5.2232,-5.2452,-5.2818,-5.2856,-5.2383,-5.2379,-5.2375,0,-5.1914,-5.2043,-5.2183,-5.2209,-5.2241,-5.2308,-5.2325,-5.2356,-5.2404,-5.2463,-5.2494,-5.2566,-5.2605,-5.2663,-5.2634,-5.2545,-5.2804,-5.2675,-5.2801,-5.2802,-5.2858,-5.2855,-5.3237,-5.2887,-5.2886,-5.2886,-5.2885,0,-5.2196,-5.2324,-5.2289,-5.2375,-5.2517,-5.2473,-5.2616,-5.2623,-5.2653,-5.274,-5.267,-5.2754,-5.271,-5.2792,-5.277,-5.291,-5.2928,-5.2925,-5.2918,-5.2932,-5.2932,-5.2959,-5.2941,-5.2895,-5.2893,-5.2891,-5.289,0,-5.248,-5.2461,-5.2608,-5.2629,-5.2637,-5.2742,-5.276,-5.2841,-5.2834,-5.2946,-5.2969,-5.2958,-5.3051,-5.3028,-5.3129,-5.3115,-5.3292,-5.3263,-5.3279,-5.3272,-5.3399,-5.3388,-5.3812,-5.3866,-5.3481,-5.3485,-5.3488,0,-5.2661,-5.2758,-5.279,-5.2844,-5.2867,-5.2954,-5.3004,-5.2966,-5.3021,-5.3075,-5.3151,-5.3238,-5.3305,-5.3458,-5.3459,-5.3538,-5.351,-5.3654,-5.3521,-5.3533,-5.3514,-5.3508,-5.3519,-5.3679,-5.3684,-5.3687,-5.369,0,-5.2984,-5.2972,-5.3045,-5.3119,-5.318,-5.3236,-5.3284,-5.3333,-5.3299,-5.3365,-5.346,-5.3512,-5.3617,-5.3706,-5.3779,-5.3797,-5.374,-5.3733,-5.3766,-5.3781,-5.3787,-5.3787,-5.3351,-5.3723,-5.3719,-5.3717,-5.3715,-5.3714,-5.3222,-5.3306,-5.3344,-5.343,-5.3464,-5.3512,-5.3591,-5.3595,-5.3674,-5.3756,-5.373,-5.3839,-5.3879,-5.3972,-5.4,-5.4086,-5.4032,-5.408,-5.4092,-5.4105,-5.4121,-5.3774,-5.4099,-5.4098,-5.4097,-5.4097,-5.4096,0,-5.3543,-5.3564,-5.3644,-5.3716,-5.3786,-5.3727,-5.378,-5.3841,-5.3938,-5.3981,-5.405,-5.4161,-5.4248,-5.4259,-5.4341,-5.4408,-5.4385,-5.4432,-5.4426,-5.4432,-5.4164,-5.4127,-5.445,-5.445,-5.445,-5.445,-5.4449,-5.4449,-5.3718,-5.3858,-5.3851,-5.4009,-5.4029,-5.4135,-5.4171,-5.4217,-5.4251,-5.4379,-5.4451,-5.4458,-5.4489,-5.4574,-5.4652,-5.4653,-5.4687,-5.4745,-5.4736,-5.4485,-5.445,-5.4416,-5.4382,-5.4753,-5.4753,-5.4997,-5.4999,-5.5001]},{"header":{"parameterUnit":"m.s-1","parameterCategory":1,"la1":30.2991,"la2":30.254,"lo1":-89.0895,"lo2":-89.0444,"dy":0.0017,"dx":0.0017,"nx":28,"ny":28,"refTime":"2023-10-23T21:00:00:Z","depth":0,"parameterNumber":3,"parameterNumberName":"V-component_of_WINDS"},"data":[0,0,0,0,0,0,0,0,0,0,0,0,0,0,0,0,0,0,0,0,0,0,0,0,0,0,0,0,0,0,0,0,0,0,0,0,0,0,0,0,0,0,0,0,0,0,0,0,0,0,0,0,0,0,0,0,0,0,-0.5231,-0.5231,0,-0.5237,-0.5237,-0.5237,-0.5278,-0.5279,-0.528,-0.5281,-0.5283,-0.5282,-0.5281,0,0,0,0,0,0,0,0,0,0,0,0,0,-0.525,-0.525,-0.5231,-0.5232,-0.5232,-0.5237,-0.5237,-0.5237,-0.5278,-0.5279,-0.528,-0.5282,-0.5283,-0.5282,-0.5281,0,0,0,0,0,0,0,0,0,0,0,0,0,-0.5248,-0.525,-0.5231,-0.5253,-0.5255,-0.5237,-0.5237,-0.5237,-0.5278,-0.5279,-0.5281,-0.5282,-0.5283,-0.5282,-0.5281,-0.5242,0,0,-0.5277,-0.5276,0,0,0,0,0,0,0,0,-0.5248,-0.5247,-0.5249,-0.5251,-0.5253,-0.5259,-0.5245,-0.5239,-0.5277,-0.5269,-0.5281,-0.5283,-0.5273,-0.5273,-0.527,-0.5242,-0.5242,-0.5277,-0.5276,-0.5275,-0.5275,0,0,0,0,0,0,0,-0.5248,-0.5247,-0.5234,-0.5249,-0.5252,-0.526,-0.5261,-0.5244,-0.5262,-0.527,-0.5273,-0.5273,-0.5275,-0.5272,-0.5271,-0.5242,-0.5277,-0.5275,-0.5275,-0.5274,-0.5178,-0.5177,0,0,0,0,0,0,-0.5246,-0.5247,-0.5233,-0.5234,-0.5254,-0.5258,-0.526,-0.5255,-0.5263,-0.5265,-0.5272,-0.5275,-0.5273,-0.5272,-0.5271,-0.5223,-0.5275,-0.5274,-0.5273,-0.518,-0.5178,-0.5176,0,0,0,0,0,0,-0.5246,-0.5244,-0.5233,-0.5241,-0.524,-0.5257,-0.5251,-0.5255,-0.5252,-0.5264,-0.5267,-0.5265,-0.5274,-0.5273,-0.5248,-0.5224,-0.5273,-0.5272,-0.5182,-0.5179,-0.5177,-0.5128,0,0,0,0,0,0,-0.5246,-0.5244,-0.5231,-0.5241,-0.524,-0.5212,-0.525,-0.5254,-0.525,-0.5254,-0.5259,-0.5262,-0.5275,-0.525,-0.5247,-0.5223,-0.5271,-0.5184,-0.5181,-0.5178,-0.5132,-0.5124,-0.5118,0,0,0,0,0,-0.5247,-0.5217,-0.523,-0.5228,-0.5224,-0.5211,-0.521,-0.5228,-0.5248,-0.5233,-0.5241,-0.5261,-0.5228,-0.5247,-0.5244,-0.5219,-0.5186,-0.5182,-0.5178,-0.5135,-0.5126,-0.5118,0,0,0,0,0,0,-0.5203,-0.5219,-0.5233,-0.5206,-0.5207,-0.5217,-0.52,-0.5218,-0.5212,-0.5216,-0.5237,-0.5238,-0.5209,-0.5212,-0.5234,-0.518,-0.521,-0.5205,-0.5179,-0.517,-0.5163,-0.5161,-0.527,0,0,0,0,0,-0.5191,-0.518,-0.5194,-0.5168,-0.5168,-0.5184,-0.5179,-0.5192,-0.5193,-0.5193,-0.5199,-0.5198,-0.5187,-0.5179,-0.517,-0.5134,-0.5133,-0.5114,-0.5107,-0.5101,-0.5096,-0.5073,-0.5064,-0.5163,-0.5163,-0.5163,0,0,-0.5164,-0.5171,-0.5163,-0.5159,-0.5162,-0.5148,-0.5184,-0.5169,-0.5157,-0.5191,-0.5167,-0.5171,-0.5171,-0.514,-0.5126,-0.5141,-0.5069,-0.5096,-0.5091,-0.5089,-0.5068,-0.5058,-0.505,-0.516,-0.5161,-0.5161,0,0,-0.5108,-0.5114,-0.5091,-0.5093,-0.5096,-0.5106,-0.5101,-0.5108,-0.5112,-0.509,-0.5113,-0.51,-0.5081,-0.5079,-0.5075,-0.5016,-0.5033,-0.5012,-0.4973,-0.4951,-0.4943,-0.4936,-0.4911,-0.4902,-0.5008,-0.5007,-0.5007,0,-0.5074,-0.5056,-0.5077,-0.506,-0.5056,-0.5086,-0.5062,-0.5062,-0.5061,-0.5056,-0.5074,-0.5049,-0.5051,-0.5017,-0.5003,-0.5,-0.4992,-0.5011,-0.4943,-0.4936,-0.493,-0.4906,-0.4897,-0.5005,-0.5005,-0.5005,-0.5005,0,-0.5012,-0.4998,-0.498,-0.4978,-0.4973,-0.4952,-0.4968,-0.4959,-0.4973,-0.4981,-0.4955,-0.4959,-0.4949,-0.4943,-0.4956,-0.491,-0.4919,-0.4939,-0.4969,-0.4917,-0.4895,-0.4886,-0.5001,-0.5002,-0.5002,-0.5003,0,0,-0.4927,-0.4938,-0.493,-0.4928,-0.4933,-0.4922,-0.4901,-0.4893,-0.4883,-0.4881,-0.4862,-0.4844,-0.4862,-0.4858,-0.4871,-0.4852,-0.48,-0.4874,-0.4875,-0.4857,-0.4744,-0.4726,-0.4715,-0.4812,-0.4811,-0.4809,-0.4743,0,-0.487,-0.4837,-0.4855,-0.4817,-0.4803,-0.4831,-0.4813,-0.4812,-0.4818,-0.4806,-0.4813,-0.4798,-0.4825,-0.4822,-0.4805,-0.481,-0.4777,-0.4815,-0.4791,-0.479,-0.4787,-0.4705,-0.4686,-0.4623,-0.4735,-0.4733,-0.4732,0,-0.4799,-0.4794,-0.4756,-0.476,-0.4755,-0.4738,-0.473,-0.4719,-0.4717,-0.4723,-0.4717,-0.4734,-0.4711,-0.4743,-0.471,-0.4735,-0.4726,-0.4727,-0.4725,-0.4721,-0.4755,-0.4694,-0.4604,-0.4593,-0.472,-0.4721,-0.4722,0,-0.4737,-0.4721,-0.4694,-0.4693,-0.4699,-0.4685,-0.4687,-0.4687,-0.468,-0.4672,-0.4667,-0.4657,-0.465,-0.464,-0.4652,-0.4675,-0.4615,-0.4649,-0.4616,-0.4616,-0.46,-0.46,-0.4503,-0.46,-0.4601,-0.4601,-0.4601,0,-0.4669,-0.4643,-0.4666,-0.4649,-0.462,-0.4641,-0.4611,-0.4615,-0.4615,-0.4597,-0.4622,-0.4605,-0.4624,-0.4608,-0.4617,-0.4585,-0.4583,-0.4585,-0.4587,-0.4581,-0.458,-0.4573,-0.4576,-0.4598,-0.4599,-0.4599,-0.46,0,-0.4593,-0.4608,-0.458,-0.4588,-0.4589,-0.4567,-0.4572,-0.4556,-0.4564,-0.4542,-0.4538,-0.4549,-0.4531,-0.4543,-0.4526,-0.4532,-0.4489,-0.4499,-0.4489,-0.4491,-0.4455,-0.4457,-0.4347,-0.4332,-0.4443,-0.4442,-0.4441,0,-0.4547,-0.4528,-0.4533,-0.4524,-0.4524,-0.4509,-0.4502,-0.4521,-0.4511,-0.4507,-0.449,-0.4474,-0.4462,-0.4432,-0.4437,-0.4422,-0.443,-0.4392,-0.4428,-0.442,-0.4424,-0.4424,-0.442,-0.4384,-0.4383,-0.4382,-0.4381,0,-0.4463,-0.4471,-0.446,-0.445,-0.4441,-0.4434,-0.4429,-0.442,-0.4438,-0.4426,-0.4408,-0.4399,-0.438,-0.4363,-0.435,-0.4349,-0.4366,-0.437,-0.4361,-0.4352,-0.4346,-0.4345,-0.4466,-0.4372,-0.4373,-0.4373,-0.4374,-0.4374,-0.4398,-0.4381,-0.4381,-0.4367,-0.4366,-0.436,-0.4344,-0.435,-0.4336,-0.4322,-0.4334,-0.4312,-0.4308,-0.4293,-0.4289,-0.427,-0.4285,-0.4273,-0.4269,-0.4264,-0.4258,-0.4352,-0.4268,-0.4269,-0.4269,-0.4269,-0.4269,0,-0.4311,-0.4313,-0.43,-0.4292,-0.428,-0.4301,-0.4295,-0.4283,-0.4263,-0.4259,-0.4247,-0.4225,-0.4207,-0.4211,-0.4195,-0.4178,-0.4185,-0.4173,-0.4172,-0.4171,-0.4248,-0.4255,-0.4167,-0.4167,-0.4167,-0.4167,-0.4167,-0.4167,-0.4265,-0.4236,-0.4243,-0.4212,-0.4214,-0.4193,-0.4187,-0.4181,-0.4177,-0.4152,-0.4138,-0.4141,-0.4139,-0.4122,-0.4106,-0.4107,-0.4098,-0.4081,-0.4085,-0.4156,-0.4166,-0.4175,-0.4182,-0.408,-0.408,-0.4009,-0.4009,-0.4008]}]]